Preview of NWS' New Version of Forecast
This preview is not operational and should not be used for support decisions.
Latest weather observations around

Gadsden, Gadsden Municipal Airport (KGAD)

Using International System of Units (Switch to English Units)
Date/ Time (CST) Wind (kph) Vis. (km) Weather Sky Cond. Temp (°C) Rel. Humidity Wind Chill (°C) Heat Index (°C) Pressure Precip. (cm)
Air Dwpt 6 hour Altimeter (hPa) Sea level (hPa) 1 hr 3 hr 6 hr
Max Min
Feb 22 07:56 S 9 16.09 Cloudy OVC012 20 19     93%     1029.5 1029.4      
Feb 22 06:56 S 5 12.87 Cloudy OVC010 19 19     100%     1029.1 1029.3      
Feb 22 06:12 SSW 8 12.87 Mostly Cloudy BKN008 17 17     100%     1028.8        
Feb 22 05:56 S 8 16.09 Mostly Cloudy BKN010 18 18     100%     1028.5 1028.6      
Feb 22 05:16 Calm 12.87 Mostly Cloudy BKN010 16 16     100%     1028.1        
Feb 22 05:01 Calm 2.82 Fog/Mist SCT010 16 16     100%     1028.1        
Feb 22 04:56 Calm 4.83 Fog/Mist FEW010 16 16     100%     1028.1 1028      
Feb 22 04:53 E 8 4.83 Fog/Mist CLR 15 15     100%     1028.1        
Feb 22 04:42 Calm 2.01 Fog/Mist CLR 16 16     100%     1028.1        
Feb 22 03:56 Calm 16.09 Clear CLR 17 17     100%     1027.8 1027.7      
Feb 22 02:56 SSW 9 16.09 Clear CLR 19 18     93%     1027.1 1027.1      
Feb 22 01:56 SW 8 16.09 Clear CLR 20 18     90%     1027.1 1026.8      
Feb 22 00:56 S 13 16.09 Clear CLR 21 18     81%     1027.1 1026.8      
Feb 21 23:56 S 11 16.09 Mostly Clear FEW045 21 18     81%     1026.8 1026.8      
Feb 21 22:56 S 9 16.09 Mostly Clear FEW046 22 18     81%   22 1026.8 1026.6      
Feb 21 21:56 SE 9 16.09 Partly Cloudy SCT050 22 18     81%   22 1026.4 1026.5      
Feb 21 20:56 SE 11 16.09 Clear CLR 22 19     84%   22 1026.4 1026.4      
Feb 21 19:56 SE 8 16.09 Clear CLR 22 18     79%   23 1026.4 1026.3      
Feb 21 18:56 SE 11 16.09 Clear CLR 23 18     74%   24 1025.7 1025.9      
Feb 21 17:56 SSE 9 16.09 Mostly Clear FEW050 24 18     69%   24 1025.7 1025.6      
Feb 21 16:56 SE 9 16.09 Mostly Clear FEW080 25 18     66%   25 1025.1 1025      
Feb 21 15:56 S 13 16.09 Clear CLR 26 19     65%   26 1025.1 1024.8      
Feb 21 14:56 SSE 18 16.09 Cloudy BKN044 BKN055 OVC100 26 19     69%   26 1025.4 1025.1      
Feb 21 13:56 S 11 16.09 Mostly Cloudy SCT043 BKN049 BKN090 26 18     60%   26 1025.4 1025.4      
Feb 21 12:56 S 18 16.09 Mostly Cloudy SCT035 BKN085 27 19     61%   28 1026.1 1026      
Feb 21 11:56 S 17 16.09 Mostly Cloudy SCT032 BKN045 26 19     69%   26 1027.1 1026.9      
Feb 21 11:45 S 17 16.09 Mostly Cloudy SCT028 BKN035 BKN046 27 20     66%   28 1027.1        
Feb 21 10:56 SE 17 16.09 Cloudy BKN026 BKN033 OVC039 24 19     74%   25 1027.8 1027.8      
Feb 21 09:56 SSE 11 16.09 Cloudy OVC020 23 20     82%   24 1028.5 1028.5      
Feb 21 08:56 S 13 16.09 Cloudy OVC016 22 19     84%   23 1028.8 1028.7      
Feb 21 08:42 SSE 17 16.09 Mostly Cloudy BKN016 BKN037 23 20     83%   24 1028.5        
Feb 21 07:56 S 5 16.09 Cloudy FEW017 SCT029 OVC037 21 19     90%     1028.5 1028.4      
Feb 21 07:48 Calm 16.09 Mostly Cloudy SCT028 BKN039 21 19     88%     1028.5        
Feb 21 07:23 S 8 16.09 Cloudy SCT014 BKN028 OVC038 21 19     88%     1028.1        
Feb 21 06:56 5 16.09 Cloudy OVC014 20 19     96%     1027.8 1027.7      
Feb 21 06:25 S 13 16.09 Mostly Cloudy BKN014 BKN022 BKN034 20 19     94%     1027.4        
Feb 21 06:03 SE 13 16.09 Mostly Cloudy BKN016 BKN021 20 19     94%     1027.1        
Feb 21 05:56 SSE 11 16.09 Cloudy BKN014 OVC021 20 19     96%     1027.1 1027      
Feb 21 05:23 S 9 16.09 Mostly Cloudy BKN014 20 19     94%     1026.8        
Feb 21 04:56 5 16.09 Cloudy OVC016 20 19     96%     1026.8 1026.7      
Feb 21 04:34 S 8 16.09 Mostly Cloudy BKN016 20 19     94%     1026.8        
Feb 21 03:56 S 8 16.09 Partly Cloudy SCT018 SCT025 SCT120 21 19     93%     1026.4 1026.3      
Feb 21 02:56 S 13 16.09 Cloudy OVC020 21 19     90%     1026.4 1026.2      
Feb 21 01:56 SSE 9 16.09 Cloudy OVC022 21 19     90%     1026.4 1026.2      
Feb 21 00:56 SSE 17 16.09 Cloudy FEW020 OVC029 21 19     90%     1026.4 1026.4      
Feb 21 00:05 SSE 9 16.09 Cloudy BKN022 BKN029 OVC041 21 19     88%     1026.4        
Feb 20 23:56 SSE 9 16.09 Mostly Cloudy SCT023 BKN030 BKN036 21 19     90%     1026.4 1026.4     0
Feb 20 22:56 SSE 11 16.09 Cloudy SCT030 BKN036 OVC090 21 19     87%     1026.1 1026.1      
Feb 20 21:56 SE 18 16.09 Partly Cloudy SCT039 22 19     84%   22 1025.7 1025.8      
Feb 20 20:56 SE 15 16.09 Partly Cloudy FEW040 SCT060 22 19     84%   22 1025.4 1025.6   0  
Feb 20 19:56 SSE 13 16.09 Cloudy SCT041 BKN050 OVC060 22 19     82%   23 1025.4 1025.3 0    
Feb 20 18:56 SE 18 16.09 Cloudy SCT060 BKN075 OVC090 23 18     76%   23 1024.7 1024.9      
Feb 20 17:56 SE 13 16.09 Mostly Cloudy BKN090 23 18     71%   24 1024.7 1024.8      
Feb 20 16:56 SSE 15 16.09 Mostly Cloudy BKN085 24 17     64%   25 1024.4 1024.2      
Feb 20 15:56 SSE 18 16.09 Mostly Cloudy FEW043 BKN080 26 17     60%   26 1023.7 1023.7      
Feb 20 14:56 SSE 21 16.09 Mostly Cloudy FEW055 BKN080 25 18     64%   25 1023.7 1023.8      
Feb 20 13:56 SSE 24 16.09 Cloudy SCT041 BKN050 OVC075 26 18     62%   26 1024.1 1024      
Feb 20 12:56 SSE 18 16.09 Cloudy BKN033 BKN042 OVC070 24 18     69%   25 1024.7 1024.9      
Feb 20 12:08 SE 18 16.09 Cloudy OVC031 23 19     78%   23 1025.7        
Feb 20 11:56 SE 13 16.09 Cloudy BKN029 OVC034 23 19     79%   23 1026.1 1025.9      
Feb 20 10:56 SE 15 16.09 Cloudy BKN025 OVC033 23 18     76%   23 1026.8 1026.7      
Feb 20 10:11 SSE 13 16.09 Mostly Cloudy BKN028 BKN033 BKN050 23 18     73%   23 1027.1        
Feb 20 09:56 SSE 13 16.09 Partly Cloudy SCT026 SCT050 22 18     76%   22 1027.1 1027.2      
Feb 20 08:56 SSE 9 16.09 Cloudy OVC050 20 17     81%     1027.1 1027.2      
Feb 20 07:56 N 11 16.09 Clear CLR 17 16     96%     1026.4 1026.6      
Feb 20 06:56 ENE 8 11.27 Cloudy OVC044 15 15     100%     1026.1 1026.1      
Feb 20 05:56 N 8 9.66 Fog/Mist BKN044 14 14     100%     1026.4 1026.3      
Feb 20 04:56 ENE 9 12.87 Mostly Cloudy BKN048 14 14     100%     1025.7 1025.9      
Feb 20 03:56 E 11 16.09 Clear CLR 14 14     100%     1025.4 1025.3      
Feb 20 02:56 ENE 8 16.09 Clear CLR 14 14     100%     1025.4 1025.3      
Feb 20 01:56 NE 9 16.09 Partly Cloudy SCT070 16 15     96%     1025.4 1025.4      
Feb 20 00:56 NE 9 16.09 Cloudy BKN043 BKN050 OVC065 17 16     93%     1025.1 1025.2      
Feb 19 23:56 NE 9 16.09 Cloudy BKN047 OVC065 17 16     90%     1025.1 1024.9      
Feb 19 21:56 SE 9 16.09 Mostly Cloudy BKN070 21 16     75%     1024.4 1024.3      
Feb 19 20:56 SE 9 16.09 Mostly Cloudy BKN070 21 16     73%     1024.1 1024.1      
Feb 19 19:56 Calm 16.09 Cloudy OVC070 19 15     76%     1023.7 1024      
Feb 19 18:56 SSE 9 16.09 Mostly Cloudy BKN070 22 15     66%   22 1023.4 1023.4      
Feb 19 17:56 9 16.09 Cloudy OVC070 22 14     61%   22 1023 1023.1      
Feb 19 16:56 SSE 11 16.09 Cloudy OVC070 23 14     57%   23 1023 1022.9      
Feb 19 15:56 SSW 9 16.09 Partly Cloudy SCT070 24 14     52%   24 1022.4 1022.5      
Feb 19 14:56 SSW 17 16.09 Clear CLR 26 13     47%   25 1022 1022.2      
Feb 19 13:56 S 21 16.09 Mostly Clear FEW049 26 14     50%   26 1022.4 1022.5      
Feb 19 12:56 SSW 18 16.09 Mostly Cloudy SCT038 BKN048 24 17     64%   24 1023 1023.1      
Feb 19 12:24 S 17 16.09 Partly Cloudy SCT028 SCT034 24 18     69%   24 1023.4        
Feb 19 12:09 SW 11 16.09 Cloudy BKN028 OVC039 22 18     78%   22 1024.1        
Feb 19 11:56 S 18 16.09 Mostly Cloudy SCT026 BKN035 BKN044 22 18     76%   22 1024.4 1024.5      
Feb 19 11:42 11 16.09 Mostly Cloudy FEW021 SCT030 BKN043 23 18     73%   23 1024.7        
Feb 19 10:56 S 11 16.09 Cloudy BKN017 OVC023 21 18     87%     1025.7 1025.8      
Feb 19 10:07 S 11 16.09 Cloudy BKN015 OVC022 21 18     83%     1026.1        
Feb 19 09:56 S 13 16.09 Cloudy OVC013 20 18     87%     1026.1 1026.3      
Feb 19 08:56 SSE 9 16.09 Cloudy OVC013 18 17     93%     1026.1 1026.4      
Jun 12 04:56 Calm 16.09 Mostly Cloudy FEW028 BKN034 21 21     97%     1021 1021.9      
Jun 11 10:20 Calm 16.09 Mostly Cloudy BKN021 27 22     74%   29 1022        
Jun 10 21:56 Calm 16.09 Clear   21 18     81%     1019.7 1020.7      
Jun 10 20:56 Calm 16.09 Clear CLR 23 18     71%   24 1018.6 1019.8      
Jun 10 03:56 Calm 16.09 Mostly Clear FEW070 16 16     100%     1016.6 1017.7      
Jun 08 22:56 Calm 16.09 Mostly Clear FEW060 17 16     93%     1013.6 1014.9      
Jun 07 18:56 N 15 16.09 Clear CLR 25 13     47%   25 1010.8 1012.2      
Jun 07 15:56 NNE 22 16.09 Clear CLR 28 12     38%   27 1010.2 1011.2      
Jun 07 13:56 N 17 16.09 Clear CLR 27 16     49%   28 1010.2 1011.4      
Jun 07 11:56 NE 17 16.09 Clear CLR 26 17     58%   26 1010.8        
Jun 06 04:23 Calm 11.27 Partly Cloudy SCT003 21 21     100%     1009.2        
Jun 05 23:56 Calm 16.09 Light Rain CLR 22 21     96%   22 1010.5 1011.3 0